Regional Weather Roundup
Issued by NWS Goodland, KS

Home | Current Version | Previous Version | Graphics & Text | Print | Product List | Glossary On
Versions: 1 2 3 4 5 6 7 8 9 10 11 12 13 14 15 16 17 18 19 20 21 22 23 24 25 26 27 28 29 30 31 32 33 34 35 36 37 38 39 40 41 42 43 44 45 46 47 48 49 50
144
ASUS43 KGLD 290908
RWRGLD

GOODLAND FORECAST AREA HOURLY WEATHER ROUNDUP
NATIONAL WEATHER SERVICE GOODLAND KS
300 AM MDT FRI APR 29 2016

...OFFICIAL OBSERVATIONS...

CITY           SKY/WX    TMP DP  RH WIND       PRES   REMARKS
GOODLAND KS    RAIN      40  38  93 E12       30.05F FOG
HILL CITY KS   CLOUDY    47  43  86 NE8       30.08F
IMPERIAL NEB   CLOUDY    41  38  89 E6        30.08S
MCCOOK NEB     CLOUDY    44  40  85 E5        30.09R
AKRON CO       CLOUDY    37  34  89 E10       30.04F
BURLINGTON CO  RAIN      39  36  89 E13       30.05S
LIMON CO       LGT SNOW  32  32 100 CALM      30.04S VSB 1
$$

...UNOFFICIAL OBSERVATIONS...

CITY           SKY/WX    TMP DP  RH WIND       PRES   REMARKS
COLBY KS       RAIN      43  43 100 NE9       30.09R
GOVE KS          N/A     45  32  60 MISG        N/A
LENORA KS        N/A     45  32  60 MISG        N/A
NORTON KS      CLOUDY    43  37  81 NE7       30.09R
SHARON SPRINGS   N/A     42  40  94 NE14        N/A
TRIBUNE KS     CLOUDY    45  43  93 NE17G26   29.99
KIT CARSON CO    N/A     39  36  89 MISG        N/A
YUMA CO          N/A     39  37  91 E8          N/A
$$




USA.gov is the U.S. government's official web portal to all federal, state and local government web resources and services.